�������l�o���
Date,Time,MP-1(��Sv/h),MP-2(��Sv/h),MP-3(��Sv/h),MP-4(��Sv/h),MP-5(��Sv/h),MP-6(��Sv/h),MP-7(��Sv/h),MP-8(��Sv/h),����,����(m/s),���J
2017/09/27,00:00,0.954,1.525,0.990,1.807,1.254,0.516,0.943,0.866,��쐼,2.0,��
2017/09/27,00:10,0.955,1.522,0.989,1.808,1.257,0.517,0.942,0.866,��,2.2,��
2017/09/27,00:20,0.955,1.522,0.990,1.807,1.255,0.517,0.941,0.870,��,1.1,��
2017/09/27,00:30,0.956,1.520,0.987,1.806,1.254,0.517,0.943,0.867,��쓌,1.5,��
2017/09/27,00:40,0.954,1.522,0.988,1.808,1.253,0.515,0.943,0.867,��쓌,1.5,��
2017/09/27,00:50,0.955,1.520,0.986,1.806,1.254,0.517,0.945,0.870,��쓌,2.3,��
2017/09/27,01:00,0.956,1.522,0.991,1.804,1.253,0.515,0.943,0.868,��쓌,2.6,��
2017/09/27,01:10,0.957,1.520,0.988,1.803,1.253,0.515,0.943,0.869,��,2.8,��
2017/09/27,01:20,0.957,1.522,0.988,1.807,1.255,0.517,0.944,0.867,��,3.3,��
2017/09/27,01:30,0.954,1.521,0.986,1.806,1.253,0.516,0.942,0.867,��,3.5,��
2017/09/27,01:40,0.955,1.519,0.989,1.804,1.254,0.515,0.943,0.866,��,3.9,��
2017/09/27,01:50,0.956,1.521,0.989,1.806,1.252,0.517,0.944,0.867,��,4.0,��
2017/09/27,02:00,0.957,1.522,0.989,1.805,1.253,0.515,0.942,0.866,��,5.3,��
2017/09/27,02:10,0.955,1.521,0.989,1.806,1.253,0.514,0.943,0.867,��,4.9,��
2017/09/27,02:20,0.956,1.518,0.987,1.808,1.252,0.516,0.942,0.868,��,5.0,��
2017/09/27,02:30,0.954,1.519,0.988,1.806,1.251,0.513,0.943,0.868,��,5.1,��
2017/09/27,02:40,0.955,1.520,0.988,1.806,1.252,0.516,0.943,0.872,��,4.2,��
2017/09/27,02:50,0.958,1.521,0.988,1.805,1.251,0.514,0.942,0.867,��,4.6,��
2017/09/27,03:00,0.955,1.518,0.987,1.808,1.252,0.517,0.943,0.866,��쓌,5.2,��
2017/09/27,03:10,0.955,1.520,0.988,1.807,1.253,0.516,0.945,0.867,��,5.8,��
2017/09/27,03:20,0.952,1.521,0.988,1.803,1.254,0.516,0.942,0.867,��쓌,6.1,��
2017/09/27,03:30,0.953,1.521,0.986,1.804,1.252,0.514,0.944,0.867,��,7.0,��
2017/09/27,03:40,0.956,1.520,0.988,1.804,1.253,0.516,0.944,0.869,��,6.5,��
2017/09/27,03:50,0.955,1.517,0.986,1.807,1.254,0.514,0.944,0.867,��,5.6,��
2017/09/27,04:00,0.955,1.519,0.988,1.806,1.253,0.514,0.943,0.866,��,4.8,��
2017/09/27,04:10,0.955,1.521,0.988,1.804,1.253,0.515,0.944,0.867,��,4.8,��
2017/09/27,04:20,0.954,1.519,0.989,1.808,1.252,0.516,0.942,0.867,��,4.2,��
2017/09/27,04:30,0.956,1.517,0.984,1.809,1.252,0.516,0.944,0.866,��쓌,4.2,��
2017/09/27,04:40,0.955,1.518,0.988,1.804,1.251,0.515,0.944,0.865,��쓌,4.5,��
2017/09/27,04:50,0.955,1.519,0.989,1.804,1.254,0.515,0.941,0.869,��쓌,3.2,��
2017/09/27,05:00,0.953,1.522,0.987,1.807,1.254,0.516,0.941,0.867,��쓌,3.4,��
2017/09/27,05:10,0.955,1.517,0.988,1.805,1.250,0.515,0.942,0.868,��쓌,4.5,��
2017/09/27,05:20,0.954,1.517,0.985,1.804,1.250,0.514,0.942,0.867,��쓌,5.0,��
2017/09/27,05:30,0.955,1.518,0.988,1.807,1.253,0.515,0.944,0.867,��쓌,5.6,��
2017/09/27,05:40,0.955,1.519,0.986,1.806,1.252,0.514,0.942,0.868,��쓌,5.8,��
2017/09/27,05:50,0.953,1.519,0.989,1.806,1.252,0.514,0.942,0.867,��쓌,6.3,��
2017/09/27,06:00,0.957,1.519,0.986,1.806,1.251,0.515,0.941,0.868,��,6.5,��
2017/09/27,06:10,0.954,1.519,0.987,1.806,1.251,0.515,0.943,0.868,��,5.9,��
2017/09/27,06:20,0.956,1.519,0.987,1.806,1.253,0.514,0.943,0.867,��쓌,5.4,��
2017/09/27,06:30,0.955,1.518,0.986,1.805,1.253,0.513,0.942,0.867,��쓌,6.2,��
2017/09/27,06:40,0.955,1.520,0.989,1.807,1.253,0.514,0.942,0.868,��쓌,6.5,��
2017/09/27,06:50,0.955,1.521,0.989,1.805,1.253,0.515,0.946,0.868,��쓌,6.3,��
2017/09/27,07:00,0.955,1.520,0.989,1.806,1.252,0.515,0.942,0.866,��쓌,7.2,��
2017/09/27,07:10,0.956,1.521,0.987,1.807,1.250,0.515,0.942,0.871,��쓌,8.1,��
2017/09/27,07:20,0.957,1.518,0.986,1.806,1.254,0.516,0.943,0.868,��쓌,8.0,��
2017/09/27,07:30,0.955,1.521,0.987,1.807,1.252,0.513,0.945,0.868,��쓌,7.6,��
2017/09/27,07:40,0.956,1.522,0.990,1.808,1.253,0.513,0.943,0.869,��,5.2,��
2017/09/27,07:50,0.955,1.519,0.987,1.807,1.254,0.514,0.944,0.871,��,3.5,��
2017/09/27,08:00,0.952,1.520,0.990,1.807,1.253,0.515,0.942,0.869,��,1.5,��
2017/09/27,08:10,0.954,1.522,0.990,1.808,1.253,0.515,0.943,0.868,��쐼,1.2,��
2017/09/27,08:20,0.957,1.521,0.990,1.809,1.252,0.514,0.943,0.869,��쓌,1.2,��
2017/09/27,08:30,0.955,1.522,0.991,1.809,1.252,0.516,0.940,0.869,��쓌,2.3,��
2017/09/27,08:40,0.956,1.521,0.989,1.812,1.254,0.515,0.943,0.869,��,3.9,��
2017/09/27,08:50,0.956,1.520,0.987,1.812,1.254,0.514,0.944,0.869,��쓌,2.6,��
2017/09/27,09:00,0.959,1.518,0.987,1.810,1.253,0.515,0.941,0.867,��쓌,3.9,��
2017/09/27,09:10,0.955,1.518,0.989,1.809,1.253,0.512,0.943,0.866,��,3.6,��
2017/09/27,09:20,0.956,1.519,0.988,1.809,1.253,0.513,0.943,0.866,��,4.2,��
2017/09/27,09:30,0.956,1.520,0.987,1.810,1.252,0.515,0.944,0.869,��,4.1,��
2017/09/27,09:40,0.955,1.519,0.986,1.808,1.252,0.514,0.941,0.867,��쓌,5.9,��
2017/09/27,09:50,0.957,1.519,0.989,1.810,1.252,0.513,0.944,0.866,��쓌,5.5,��
2017/09/27,10:00,0.958,1.521,0.990,1.809,1.251,0.514,0.944,0.864,��쓌,6.5,��
2017/09/27,10:10,0.956,1.522,0.987,1.813,1.254,0.514,0.945,0.866,��쓌,7.9,��
2017/09/27,10:20,0.958,1.522,0.987,1.812,1.255,0.515,0.945,0.867,��쓌,10.3,��
2017/09/27,10:30,0.959,1.522,0.988,1.813,1.256,0.515,0.944,0.866,��,10.2,��
2017/09/27,10:40,0.959,1.522,0.988,1.813,1.256,0.516,0.945,0.868,��쓌,10.8,��
2017/09/27,10:50,0.961,1.522,0.988,1.812,1.257,0.516,0.944,0.867,��쓌,12.1,��
2017/09/27,11:00,0.959,1.521,0.990,1.813,1.258,0.517,0.945,0.868,��,12.0,��
2017/09/27,11:10,0.958,1.528,0.991,1.814,1.260,0.517,0.945,0.868,��쓌,12.5,��
2017/09/27,11:20,0.961,1.521,0.992,1.811,1.259,0.517,0.944,0.867,��쓌,13.5,��
2017/09/27,11:30,0.962,1.523,0.992,1.813,1.259,0.516,0.947,0.867,��,11.6,��
2017/09/27,11:40,0.961,1.526,0.990,1.810,1.260,0.516,0.946,0.869,��쓌,11.4,��
2017/09/27,11:50,0.962,1.523,0.992,1.813,1.258,0.516,0.946,0.870,��,9.7,��
2017/09/27,12:00,0.962,1.529,0.991,1.814,1.258,0.516,0.947,0.870,��쓌,10.2,��
2017/09/27,12:10,0.964,1.530,0.992,1.816,1.262,0.516,0.947,0.869,��,11.6,��
2017/09/27,12:20,0.960,1.529,0.992,1.814,1.258,0.518,0.946,0.867,��쓌,13.3,��
2017/09/27,12:30,0.962,1.528,0.992,1.814,1.260,0.520,0.946,0.869,��,14.6,��
2017/09/27,12:40,0.962,1.531,0.993,1.813,1.263,0.520,0.947,0.868,��,12.7,��
2017/09/27,12:50,0.961,1.530,0.990,1.813,1.262,0.517,0.947,0.868,��쓌,13.0,��
2017/09/27,13:00,0.960,1.533,0.992,1.819,1.262,0.517,0.947,0.869,��,11.4,��
2017/09/27,13:10,0.963,1.531,0.991,1.814,1.262,0.520,0.945,0.867,��쓌,11.1,��
2017/09/27,13:20,0.962,1.528,0.990,1.815,1.263,0.520,0.948,0.867,��쓌,11.6,��
2017/09/27,13:30,0.962,1.527,0.991,1.813,1.265,0.519,0.946,0.870,��,10.5,��
2017/09/27,13:40,0.961,1.524,0.991,1.814,1.260,0.519,0.945,0.869,��,10.2,��
2017/09/27,13:50,0.962,1.525,0.991,1.814,1.260,0.521,0.947,0.868,��,10.2,��
2017/09/27,14:00,0.962,1.528,0.989,1.813,1.262,0.520,0.946,0.868,��쓌,8.7,��
2017/09/27,14:10,0.962,1.528,0.990,1.816,1.262,0.521,0.948,0.868,��,10.2,��
2017/09/27,14:20,0.963,1.529,0.991,1.817,1.263,0.518,0.947,0.869,��,7.4,��
2017/09/27,14:30,0.962,1.530,0.991,1.814,1.262,0.518,0.946,0.869,��쓌,10.3,��
2017/09/27,14:40,0.963,1.530,0.990,1.815,1.263,0.520,0.947,0.868,��,9.9,��
2017/09/27,14:50,0.963,1.527,0.992,1.816,1.265,0.520,0.946,0.867,��,9.2,��
2017/09/27,15:00,0.963,1.530,0.991,1.817,1.266,0.519,0.946,0.869,��,8.0,��
2017/09/27,15:10,0.962,1.529,0.993,1.816,1.266,0.519,0.946,0.870,��,6.6,��
2017/09/27,15:20,0.965,1.526,0.994,1.816,1.264,0.518,0.949,0.868,��,9.6,��
2017/09/27,15:30,0.963,1.529,0.991,1.818,1.266,0.520,0.946,0.868,��,8.6,��
2017/09/27,15:40,0.962,1.531,0.991,1.816,1.264,0.520,0.947,0.870,��,8.6,��
2017/09/27,15:50,0.962,1.535,0.991,1.818,1.265,0.519,0.947,0.869,��,8.6,��
2017/09/27,16:00,0.964,1.533,0.992,1.819,1.265,0.517,0.946,0.869,��,7.2,��
2017/09/27,16:10,0.963,1.529,0.993,1.814,1.264,0.518,0.947,0.867,��,10.4,��
2017/09/27,16:20,0.964,1.533,0.993,1.817,1.262,0.519,0.945,0.870,��,10.6,��
2017/09/27,16:30,0.961,1.531,0.992,1.816,1.264,0.518,0.946,0.872,��,10.2,��
2017/09/27,16:40,0.962,1.528,0.995,1.819,1.264,0.517,0.947,0.870,��,9.1,��
2017/09/27,16:50,0.960,1.531,0.994,1.819,1.263,0.517,0.947,0.870,��,8.3,��
2017/09/27,17:00,0.964,1.530,0.995,1.820,1.265,0.517,0.945,0.870,��,10.2,��
2017/09/27,17:10,0.963,1.530,0.993,1.821,1.263,0.516,0.946,0.871,��,10.7,��
2017/09/27,17:20,0.961,1.531,0.993,1.817,1.262,0.519,0.945,0.872,��,10.8,��
2017/09/27,17:30,0.958,1.530,0.994,1.820,1.262,0.518,0.946,0.870,��,10.0,��
2017/09/27,17:40,0.959,1.530,0.992,1.819,1.263,0.517,0.946,0.873,��,10.0,��
2017/09/27,17:50,0.960,1.530,0.995,1.819,1.264,0.518,0.947,0.871,��,8.5,��
2017/09/27,18:00,0.960,1.532,0.995,1.820,1.266,0.517,0.946,0.873,��,7.8,��
2017/09/27,18:10,0.961,1.532,0.995,1.819,1.264,0.519,0.947,0.871,��,9.6,��
2017/09/27,18:20,0.960,1.529,0.995,1.817,1.264,0.519,0.947,0.872,��,8.9,��
2017/09/27,18:30,0.960,1.532,0.995,1.817,1.267,0.519,0.948,0.873,��,8.7,��
2017/09/27,18:40,0.960,1.533,0.995,1.817,1.265,0.518,0.949,0.870,��,9.0,��
2017/09/27,18:50,0.962,1.530,0.996,1.820,1.264,0.518,0.946,0.872,��,8.9,��
2017/09/27,19:00,0.959,1.530,0.995,1.819,1.266,0.517,0.946,0.872,��,9.0,�L
2017/09/27,19:10,0.960,1.531,0.995,1.818,1.265,0.520,0.947,0.872,��,9.6,�L
2017/09/27,19:20,0.961,1.532,0.994,1.818,1.265,0.518,0.947,0.872,��,8.9,�L
2017/09/27,19:30,0.960,1.532,0.995,1.820,1.264,0.517,0.948,0.872,��,6.8,�L
2017/09/27,19:40,0.964,1.530,0.995,1.819,1.264,0.519,0.948,0.873,��,6.3,�L
2017/09/27,19:50,0.963,1.528,0.997,1.821,1.268,0.520,0.947,0.873,��,5.7,�L
2017/09/27,20:00,0.965,1.533,0.998,1.821,1.267,0.521,0.947,0.873,��,7.6,�L
2017/09/27,20:10,0.966,1.532,0.998,1.819,1.266,0.521,0.947,0.873,��,7.7,�L
2017/09/27,20:20,0.964,1.536,1.000,1.822,1.268,0.522,0.949,0.871,��,8.4,�L
2017/09/27,20:30,0.966,1.534,1.000,1.820,1.269,0.520,0.948,0.873,��,6.8,�L
2017/09/27,20:40,0.966,1.535,0.997,1.820,1.268,0.521,0.949,0.872,��,7.6,�L
2017/09/27,20:50,0.967,1.536,1.000,1.823,1.267,0.523,0.948,0.873,��,7.7,�L
2017/09/27,21:00,0.967,1.535,0.999,1.823,1.268,0.521,0.947,0.874,��,9.2,�L
2017/09/27,21:10,0.965,1.533,0.999,1.821,1.265,0.519,0.948,0.873,��,8.8,��
2017/09/27,21:20,0.965,1.533,0.999,1.820,1.266,0.520,0.948,0.871,��,8.3,�L
2017/09/27,21:30,0.962,1.535,0.997,1.820,1.264,0.519,0.947,0.871,��,8.9,�L
2017/09/27,21:40,0.962,1.531,1.000,1.821,1.265,0.520,0.949,0.873,��,8.0,��
2017/09/27,21:50,0.960,1.532,0.997,1.818,1.265,0.518,0.948,0.870,��,7.6,�L
2017/09/27,22:00,0.963,1.533,0.999,1.818,1.264,0.520,0.946,0.874,��,7.1,�L
2017/09/27,22:10,0.959,1.530,0.997,1.821,1.263,0.519,0.946,0.870,��,7.3,��
2017/09/27,22:20,0.962,1.531,0.997,1.818,1.262,0.519,0.947,0.872,��쐼,7.0,��
2017/09/27,22:30,0.961,1.530,0.995,1.820,1.263,0.520,0.948,0.872,��쐼,6.6,��
2017/09/27,22:40,0.961,1.531,0.997,1.821,1.260,0.520,0.947,0.871,��쐼,6.4,��
2017/09/27,22:50,0.961,1.530,0.995,1.819,1.263,0.520,0.946,0.871,��쐼,5.2,�L
2017/09/27,23:00,0.960,1.529,0.996,1.820,1.263,0.518,0.948,0.871,��,5.1,�L
2017/09/27,23:10,0.962,1.531,0.997,1.820,1.264,0.520,0.947,0.871,��,5.0,��
2017/09/27,23:20,0.961,1.530,0.996,1.817,1.265,0.518,0.947,0.872,��,6.1,��
2017/09/27,23:30,0.960,1.529,0.997,1.820,1.264,0.518,0.948,0.871,��,6.3,��
2017/09/27,23:40,0.961,1.531,0.997,1.820,1.265,0.518,0.946,0.870,��쐼,6.6,�L
2017/09/27,23:50,0.961,1.532,0.995,1.819,1.263,0.519,0.947,0.871,��쐼,6.7,��
